sat.trackr.live / text

‹ back to catalog

STARLINK-32933

NORAD 63082 · 2025-037F

PAYLOAD ACTIVE UNKNOWN

§ Identity

Operator
Country
US
Launch date
2025-02-23
Launch site
AFWTR
Launch vehicle
Mass (kg)
RCS (m²)

Purposes: comms

External: N2YO · Heavens-Above · Gunter

§ Orbital elements

Epoch: 2026-05-25T03:25:10.949376Z

Period
96.11 min
Inclination
70.0003°
Eccentricity
0.0004117
Mean motion
14.98333184 rev/d
Perigee alt
569.2 km
Apogee alt
574.9 km
Semi-major
6,950.2 km
B*
5.7530e-4
RAAN
161.6957°
Arg perigee
263.1446°
Mean anomaly
96.9244°
Rev number
6,999

§ Raw data

STARLINK-329331 63082U 25037F   26145.14248784  .00006779  00000+0  57530-3 0  99932 63082  70.0003 161.6957 0004117 263.1446  96.9244 14.98333184 69996

JSON: /api/v1/satellites/63082 · /tle

For live sub-satellite position, see the globe view (requires WebGL).

§ Visibility from observer

Set your observer location to see the next 7 days of passes ≥ 10°. The values pass through the URL so the page stays shareable.

No JS? Fill the form by hand. The geolocation button needs JavaScript.